DateTimeUTC,F1_A11,F1_S11,BsB_S11,BsG_S11,BsR_S11,BbsB_S11,BbsG_S11,BbsR_S11,BaB_A11,BaG_A11,BaR_A11,Tu_S11,T_S11,Uu_S11,U_S11,P_S11,T1_A11
2021-07-19T10:00:00Z,00000200,20000000,,,,,,,0000.15,-000.16,0000.21,18.5,25.1,12.1,08.1,0675.1,31.0
2021-07-19T10:01:00Z,00000200,20000000,,,,,,,0000.02,0000.05,-000.26,18.5,25.1,11.8,07.9,0675.1,31.0
2021-07-19T10:02:00Z,00000200,20000000,,,,,,,0000.24,0000.06,0000.06,18.5,25.1,11.8,07.9,0675.1,31.0
2021-07-19T10:03:00Z,00000200,60000000,,,,,,,-000.26,-000.12,0000.28,18.5,25.1,11.8,07.9,0675.1,31.0
2021-07-19T10:04:00Z,00000200,40000000,0001.34,0000.60,0000.58,0000.94,0000.01,0000.25,0000.30,0000.13,-000.24,18.6,24.9,11.9,08.1,0676.0,31.0
2021-07-19T10:05:00Z,00000200,00000000,0000.85,0000.74,0000.22,0000.42,-000.08,-000.09,-000.12,0000.01,0000.07,18.6,24.9,11.8,08.0,0676.1,31.0
2021-07-19T10:06:00Z,00000200,00000000,0000.93,0000.40,0000.44,0000.66,0000.26,0000.03,0000.34,0000.19,0000.19,18.6,24.8,11.9,08.1,0676.1,31.0
2021-07-19T10:07:00Z,00000200,00000000,0001.45,0000.77,0000.47,0001.01,0000.12,0000.18,-000.06,0000.07,-000.01,18.6,24.9,11.8,08.1,0676.1,31.0
2021-07-19T10:08:00Z,00000200,00000000,0000.77,0000.31,0000.21,-000.16,0000.26,-000.25,0000.24,-000.21,0000.09,18.6,24.9,11.8,08.1,0676.1,31.0
2021-07-19T10:09:00Z,00000200,00000000,0001.41,0000.82,0000.20,0000.57,0000.34,0000.01,0000.04,0000.41,0000.17,18.6,24.8,11.8,08.1,0676.1,31.0
2021-07-19T10:10:00Z,00000200,00000000,0000.89,0000.86,0000.35,0000.36,0000.15,0000.08,-000.14,0000.02,0000.02,18.6,24.8,11.8,08.1,0676.1,31.0
2021-07-19T10:11:00Z,00000200,00000000,0000.64,0000.63,0000.53,-000.12,0000.25,0000.24,0000.30,0000.17,0000.06,18.6,24.8,11.8,08.1,0676.1,31.0
2021-07-19T10:12:00Z,00000200,00000000,0000.94,0000.27,-000.00,0001.04,0000.42,-000.16,-000.25,-000.17,-000.10,18.6,24.8,11.9,08.1,0676.1,31.0
2021-07-19T10:13:00Z,00000200,00000000,0001.05,0000.57,0000.27,0000.69,0000.13,-000.05,0000.59,0000.08,0000.17,18.6,24.8,11.8,08.1,0676.1,31.0
2021-07-19T10:14:00Z,00000200,00000000,0000.78,0000.46,0000.60,0000.37,-000.01,-000.06,-000.10,0000.08,0000.09,18.6,24.8,11.8,08.1,0676.1,31.0
2021-07-19T10:15:00Z,00000200,00000000,0001.32,0000.80,0000.39,-000.01,0000.31,0000.09,0000.19,0000.30,-000.20,18.6,24.8,11.8,08.1,0676.1,31.0
2021-07-19T10:16:00Z,00000200,00000000,0000.91,0000.79,0000.14,0000.26,0000.05,-000.02,0000.01,0000.01,-000.04,18.6,24.8,11.8,08.1,0676.1,31.0
2021-07-19T10:17:00Z,00000200,00000000,0000.90,0000.57,0000.18,0000.17,0000.21,0000.02,0000.37,0000.19,0000.46,18.6,24.8,11.8,08.1,0676.1,31.0
2021-07-19T10:18:00Z,00000200,00000000,0000.98,0000.51,0000.30,-000.13,0000.46,0000.12,-000.28,-000.29,-000.12,18.6,24.8,11.7,08.0,0676.1,31.0
2021-07-19T10:19:00Z,00000200,00000000,0000.04,0000.49,0000.18,0000.45,0000.32,0000.03,-000.02,0000.09,0000.05,18.6,24.8,11.7,08.0,0676.1,31.0
2021-07-19T10:20:00Z,00000200,00000000,0000.85,0000.33,0000.36,0000.41,0000.54,0000.03,0000.22,0000.18,0000.15,18.6,24.8,11.6,08.0,0676.2,31.0
2021-07-19T10:21:00Z,00000200,00000000,0000.82,0000.86,0000.18,0000.02,0000.12,0000.06,0000.41,0000.17,0000.14,18.6,24.8,11.7,08.0,0676.2,31.0
2021-07-19T10:22:00Z,00000200,00000000,0001.27,0000.30,0000.70,0000.18,0000.21,0000.25,-000.30,-000.08,-000.03,18.6,24.8,11.7,08.1,0676.2,31.0
2021-07-19T10:23:00Z,00000200,00000000,0001.11,0000.57,0000.34,0000.32,0000.29,-000.14,0000.54,0000.37,0000.26,18.6,24.8,11.7,08.1,0676.2,31.0
2021-07-19T10:24:00Z,00000200,00000000,0001.01,0001.04,0000.09,0000.30,0000.25,-000.17,-000.28,-000.05,-000.11,18.6,24.8,11.6,08.0,0676.2,31.0
2021-07-19T10:25:00Z,00000200,00000000,0000.93,0000.47,0000.28,0000.47,0000.04,0000.03,0000.46,0000.26,0000.23,18.6,24.8,11.5,07.9,0676.2,31.0
2021-07-19T10:26:00Z,00000200,00000000,0000.57,0000.61,0000.59,-000.02,0000.15,-000.14,0000.11,-000.02,-000.19,18.6,24.8,11.6,08.0,0676.2,31.0
2021-07-19T10:27:00Z,00000200,00000000,0000.45,0000.57,0000.45,0000.13,0000.25,-000.05,0000.03,0000.11,0000.30,18.6,24.8,11.6,08.0,0676.2,31.0
2021-07-19T10:28:00Z,00000200,00000000,0000.72,0000.79,0000.22,0000.10,0000.17,-000.18,-000.20,0000.29,0000.01,18.6,24.8,11.6,08.0,0676.2,31.0
2021-07-19T10:29:00Z,00000200,00000000,0001.00,0000.27,0000.48,0000.58,0000.26,-000.00,0000.53,0000.19,0000.16,18.6,24.8,11.7,08.0,0676.2,31.1
2021-07-19T10:30:00Z,00000200,00000000,0000.81,0000.33,0000.22,0000.39,0000.15,-000.11,0000.35,0000.39,0000.52,18.6,24.8,11.7,08.0,0676.2,31.0
2021-07-19T10:31:00Z,00000200,00000000,0000.74,0000.73,0000.27,0000.26,0000.30,-000.01,0000.03,0000.10,-000.25,18.6,24.8,11.7,08.1,0676.2,31.0
2021-07-19T10:32:00Z,00000200,00000000,0001.36,0000.51,0000.16,0000.35,0000.27,0000.13,0000.22,0000.10,0000.05,18.6,24.8,11.7,08.0,0676.2,31.0
2021-07-19T10:33:00Z,00000200,00000000,0001.15,0000.75,0000.35,0000.40,0000.26,-000.06,0000.08,0000.11,0000.28,18.6,24.8,11.7,08.1,0676.2,31.0
2021-07-19T10:34:00Z,00000200,00000000,0001.04,0000.51,0000.28,0000.47,0000.13,0000.22,0000.13,0000.18,0000.17,18.6,24.8,11.6,08.0,0676.2,31.0
2021-07-19T10:35:00Z,00000200,00000000,0000.80,0000.73,0000.19,0000.09,0000.48,-000.05,0000.23,-000.05,-000.09,18.7,24.8,11.7,08.0,0676.2,31.0
2021-07-19T10:36:00Z,00000200,00000000,0000.62,0000.58,0000.34,0000.36,0000.13,0000.18,0000.01,0000.17,0000.05,18.7,24.8,11.7,08.1,0676.2,31.0
2021-07-19T10:37:00Z,00000200,00000000,0001.23,0000.81,0000.37,0000.73,0000.30,-000.06,0000.31,-000.12,0000.03,18.7,24.8,11.8,08.1,0676.2,31.0
2021-07-19T10:38:00Z,00000200,00000000,0000.67,0000.65,0000.02,0000.50,0000.03,-000.28,0000.31,0000.46,0000.45,18.7,24.8,11.7,08.1,0676.2,31.0
2021-07-19T10:39:00Z,00000200,00000000,0000.78,0000.17,0000.28,0000.30,0000.20,-000.01,0000.17,0000.01,-000.33,18.7,24.8,11.9,08.2,0676.2,31.0
2021-07-19T10:40:00Z,00000200,00000000,0001.04,0000.84,0000.18,0000.48,0000.34,0000.06,-000.09,0000.39,0000.63,18.7,24.8,11.9,08.2,0676.2,31.0
2021-07-19T10:41:00Z,00000200,00000000,0001.47,0000.78,0000.39,0000.18,0000.63,0000.09,0000.14,-000.14,-000.23,18.7,24.8,11.9,08.2,0676.2,31.0
2021-07-19T10:42:00Z,00000200,00000000,0000.56,0000.82,0000.11,0000.40,0000.28,-000.18,0000.20,0000.25,0000.26,18.7,24.8,12.0,08.3,0676.2,31.0
2021-07-19T10:43:00Z,00000200,00000000,0000.92,0000.45,0000.46,0000.03,0000.26,-000.02,0000.11,-000.42,-000.20,18.7,24.8,11.9,08.2,0676.2,31.0
2021-07-19T10:44:00Z,00000200,00000000,0000.37,0000.58,0000.33,-000.17,0000.20,0000.00,0000.07,0000.18,0000.08,18.7,24.8,11.8,08.1,0676.2,31.0
2021-07-19T10:45:00Z,00000200,00000000,0001.05,0000.47,0000.37,0000.39,0000.29,-000.09,0000.16,0000.76,-000.17,18.7,24.8,11.8,08.1,0676.2,31.0
2021-07-19T10:46:00Z,00000200,00000000,0000.72,0000.41,0000.31,0000.48,0000.10,0000.20,0000.29,-000.36,0000.34,18.7,24.8,11.9,08.2,0676.2,31.0
2021-07-19T10:47:00Z,00000200,00000000,0000.68,0000.91,0000.32,0000.84,0000.10,-000.06,0000.27,0000.16,0000.43,18.7,24.8,11.9,08.2,0676.2,31.0
2021-07-19T10:48:00Z,00000200,00000000,0000.50,0000.84,0000.32,0000.28,0000.09,0000.06,0000.19,0000.54,0000.16,18.7,24.8,12.0,08.3,0676.2,31.0
2021-07-19T10:49:00Z,00000200,00000000,0001.37,0000.41,0000.04,-000.21,0000.11,0000.15,0000.04,-000.22,-000.28,18.7,24.8,12.0,08.3,0676.2,31.0
2021-07-19T10:50:00Z,00000200,00000000,0001.26,0000.44,0000.32,0000.11,0000.07,-000.16,0000.04,0000.48,0000.45,18.7,24.8,12.0,08.3,0676.2,31.0
2021-07-19T10:51:00Z,00000200,00000000,0000.81,0000.58,0000.04,0000.66,0000.35,0000.15,0000.04,-000.09,-000.15,18.7,24.8,12.0,08.2,0676.2,31.0
2021-07-19T10:52:00Z,00000200,00000000,0000.55,0000.16,0000.27,0000.59,0000.35,0000.06,-000.00,0000.08,-000.08,18.7,24.8,12.1,08.3,0676.2,31.0
2021-07-19T10:53:00Z,00000200,00000000,-000.02,0000.39,0000.27,0000.70,0000.15,-000.11,-000.02,-000.14,-000.01,18.7,24.8,12.0,08.3,0676.2,31.0
2021-07-19T10:54:00Z,00000200,00000000,0001.53,0000.29,0000.47,0000.33,0000.16,0000.22,0000.70,0000.60,0000.51,18.7,24.8,12.1,08.3,0676.2,31.0
2021-07-19T10:55:00Z,00000200,00000000,0000.72,0000.52,0000.29,0000.33,-000.06,0000.00,-000.13,-000.02,0000.12,18.7,24.8,12.2,08.4,0676.2,31.0
2021-07-19T10:56:00Z,00000200,00000000,0001.07,0000.64,0000.15,0000.30,0000.15,-000.30,0000.60,0000.47,0000.12,18.8,24.8,12.3,08.5,0676.2,31.0
2021-07-19T10:57:00Z,00000200,40000000,,,,,,,-000.28,-000.35,-000.19,18.8,24.9,12.3,08.5,0676.3,31.0
2021-07-19T10:58:00Z,00000200,60000000,,,,,,,-000.26,-000.03,-000.03,18.6,25.0,12.2,08.2,0675.2,31.0
2021-07-19T10:59:00Z,00000200,20000000,,,,,,,0000.18,0000.01,-000.01,18.6,25.1,12.3,08.3,0675.2,31.0
